Regional Weather Roundup
Issued by NWS

Home | Current Version | Previous Version | Text Only | Print | Product List | Glossary On
Versions: 1 2 3 4 5 6 7 8 9 10 11 12 13 14 15 16 17 18 19 20 21 22 23 24 25 26 27 28 29 30 31 32 33 34 35 36 37 38 39 40 41 42 43 44 45 46 47 48 49 50
000
ASUS44 KBMX 241910
RWRAL

ALABAMA REGIONAL WEATHER ROUNDUP
NATIONAL WEATHER SERVICE BIRMINGHAM AL
100 PM CST FRI FEB 24 2017

NOTE: "FAIR" INDICATES FEW OR NO CLOUDS BELOW 12,000 FEET
WITH NO SIGNIFICANT WEATHER AND/OR OBSTRUCTIONS TO VISIBILITY.

THE REMARK "TC" DENOTES TEMPERATURE IN DEGREES CELSIUS.

ALZ001>011-014-016>018-020-242000-
NORTH ALABAMA

CITY           SKY/WX    TMP DP  RH WIND       PRES   REMARKS
MUSCLE SHOALS  SUNNY     79  53  40 S17G32    29.71F
HUNTSVILLE     PTSUNNY   79  57  46 S20G30    29.73F
DECATUR        MOSUNNY   74  60  61 S17G28    29.73F
HALEYVILLE     PTSUNNY   74  57  55 S21       29.75F
GADSDEN        MOSUNNY   78  58  49 S10G16    29.79F
$$

ALZ012-013-022-023-030>036-040>044-242000-
WEST CENTRAL ALABAMA

CITY           SKY/WX    TMP DP  RH WIND       PRES   REMARKS
TUSCALOOSA     SUNNY     79  57  46 S18G28    29.77F
$$

ALZ015-024>027-033>036-040>044-242000-
CENTRAL ALABAMA

CITY           SKY/WX    TMP DP  RH WIND       PRES   REMARKS
BIRMINGHAM     MOSUNNY   77  56  48 S15G22    29.81F
MONTGOMERY     MOSUNNY   82  57  42 S10       29.82F
SHELBY CO ARPT MOSUNNY   78  59  51 S14G24    29.80F
MAXWELL AFB    MOSUNNY   80  59  49 SW9       29.81F
GREENVILLE     FAIR      78  56  46 VRB6      29.81F
$$

ALZ019-021-028-029-037-038-045>048-242000-
EAST CENTRAL ALABAMA

CITY           SKY/WX    TMP DP  RH WIND       PRES   REMARKS
ANNISTON       MOSUNNY   78  55  44 S12G18    29.80F
ALEXANDER CITY SUNNY     76  56  49 S12       29.83F
AUBURN         PTSUNNY   77  56  48 S9G16     29.85F
$$

ALZ051>064-242000-
SOUTHWEST ALABAMA

CITY           SKY/WX    TMP DP  RH WIND       PRES   REMARKS
MOBILE         PTSUNNY   77  61  57 S16G23    29.84F
BROOKLEY FIELD SUNNY     73  66  78 SE12      29.86F
EVERGREEN      PTSUNNY   78  60  53 SW10G21   29.83F
$$

ALZ049-050-065>069-242000-
SOUTHEAST ALABAMA

CITY           SKY/WX    TMP DP  RH WIND       PRES   REMARKS
DOTHAN         SUNNY     79  56  45 MISG      29.86F
OZARK          SUNNY     80  57  45 SE5       29.82F
TROY           PTSUNNY   79  57  46 SW10      29.84F
EUFAULA        FAIR      81  57  43 SE8       29.81F
$$



USA.gov is the U.S. government's official web portal to all federal, state and local government web resources and services.